Location: St. Louis
(38.6270°N, 90.1994°W)
Time: 00:40:13
(UTC-06:00)

Vanguard 2 - Pass Details

Date: 01 December 2021
Orbit: 553 x 2936 km, 32.9° (Epoch: 16 January)

Event Time Altitude Azimuth Distance (km) Brightness Sun altitude
Rises 15:17:49 0° 255° (WSW) 3,250 12.0 12.3°
Reaches altitude 10° 15:19:53 10° 251° (WSW) 2,509 11.7 12.0°
Maximum altitude 15:25:44 57° 174° (S) 1,369 9.3 11.2°
Drops below altitude 10° 15:35:30 10° 99° (E) 4,101 10.9 9.7°
Sets 15:39:48 0° 96° (E) 5,495 11.5 9.0°
